Content
SEND FEEDBACK

Daily
Averages
Monthly
Summary
United States of America

ACHANG BAY, GUAM


Home > North America > United States > Guam
Elevation: 10 meters     Latitude: 13 16N     Longitude: 144 45E

WEATHER
 
SELECT A DAY
Number of Records: 351,620;   Date Range: 1/1/95 - 10/20/14
 
SHARE

PRINT THIS DATA

[ ← Previous Day ]
WEATHER ALMANAC - 11 FEBRUARY, 2013
[ Next Day → ]
[ °F ]   °C
Weather ElementAverageHighLow
Temperature25.6 °C28 °C (12:50 pm)23 °C (1:24 am)
Dewpoint22.7 °C24 °C (1:05 pm)20.1 °C (4:55 am)
Humidity84.3 %94 % (1:24 am)70 % (10:55 am)
Barometer1011.5 hPa1013.5 hPa (9:55 am)1010.2 hPa (2:55 pm)
Wind Speed28 km/h40.7 km/h (1:11 am)
Wind Gust55.5 km/h (1:11 am)
Weather ElementAverage
Visibility14.3 km
Wind DirectionENE (60.6 °)

Weather ElementTotal
Precipitation3.05 mm
Cooling Degree Days7.2 (Base 18.3)
Growing Degree Days15.5 (Base 10)
Averaged from 86 records on 11 February, 2013
WEATHER CONDITIONS BREAKOUT
WIND DIRECTION BREAKOUT
WEATHER BY HOUR - 11 FEBRUARY, 2013
[ °F ]   °C
Local TimeTemperatureDewpointHumidityBarometerVisibilityWind DirectionWind SpeedGust SpeedPrecipitationEventsConditions
12:55 AM24.7 °C22.9 °C90 %1011.5 hPa16.1 kmENE (60°)20.4 km/hMostly Cloudy
1:11 AM25 °C23 °C89 %1011.5 hPa12.9 kmEast (80°)40.7 km/h55.5 km/hRainLight Rain
1:24 AM23 °C22 °C94 %1011.2 hPa8 kmESE (110°)13 km/hOvercast
1:54 AM24 °C22 °C89 %1011.2 hPa16.1 kmEast (80°)25.9 km/hMostly Cloudy
1:55 AM24.5 °C22.4 °C88 %1011.2 hPa16.1 kmEast (80°)24.1 km/h1.02 mmMostly Cloudy
2:55 AM24.3 °C21.2 °C83 %1010.8 hPa16.1 kmEast (80°)25.9 km/hPartly Cloudy
3:55 AM24 °C20.4 °C80 %1010.8 hPa16.1 kmENE (70°)25.9 km/hClear
4:55 AM24.2 °C20.1 °C78 %1011.2 hPa16.1 kmEast (80°)24.1 km/hPartly Cloudy
5:55 AM23.8 °C20.4 °C81 %1011.2 hPa16.1 kmENE (60°)20.4 km/hClear
6:55 AM24 °C21 °C83 %1011.9 hPa16.1 kmENE (60°)22.2 km/hClear
7:55 AM25.3 °C21.4 °C79 %1012.5 hPa16.1 kmNE (50°)20.4 km/hClear
8:55 AM26.7 °C21.7 °C74 %1013.2 hPa16.1 kmENE (60°)27.8 km/hScattered Clouds
9:55 AM26.9 °C21.3 °C71 %1013.5 hPa16.1 kmNE (40°)25.9 km/hMostly Cloudy
10:55 AM27.5 °C21.6 °C70 %1012.9 hPa16.1 kmNE (50°)27.8 km/hMostly Cloudy
11:12 AM26 °C22 °C78 %1012.9 hPa16.1 kmEast (90°)33.3 km/h42.6 km/hMostly Cloudy
11:55 AM27.8 °C22 °C71 %1012.2 hPa16.1 kmNE (40°)31.5 km/h38.9 km/h0 mmMostly Cloudy
12:50 PM28 °C22 °C70 %1011.2 hPa16.1 kmNE (40°)31.5 km/hMostly Cloudy
12:55 PM27.5 °C22.4 °C74 %1011.5 hPa16.1 kmENE (60°)33.3 km/h44.4 km/hMostly Cloudy
12:56 PM27 °C23 °C79 %1011.5 hPa12.9 kmENE (70°)38.9 km/h48.1 km/hLight Drizzle
12:57 PM27 °C23 °C79 %1013.2 hPa3.2 kmENE (60°)38.9 km/h48.1 km/hRainLight Rain Showers
1:05 PM25 °C24 °C94 %1011.5 hPa4 kmENE (60°)33.3 km/h48.1 km/hRainLight Rain
1:06 PM25 °C24 °C94 %1011.5 hPa4.8 kmNE (50°)31.5 km/h48.1 km/hRainLight Rain
1:14 PM26 °C24 °C89 %1011.5 hPa11.3 kmNE (50°)31.5 km/hOvercast
1:31 PM25 °C23 °C89 %1011.5 hPa14.5 kmNE (40°)29.6 km/hOvercast
1:35 PM25 °C23 °C89 %1011.2 hPa14.5 kmNNE (30°)29.6 km/hOvercast
1:40 PM25 °C23 °C89 %1011.2 hPa16.1 kmNNE (30°)29.6 km/hOvercast
1:41 PM25 °C23 °C89 %1011.2 hPa16.1 kmNNE (30°)25.9 km/hOvercast
1:44 PM26 °C23 °C83 %1011.2 hPa16.1 kmNNE (30°)25.9 km/hOvercast
1:55 PM26.1 °C23.2 °C84 %1011.2 hPa16.1 kmNE (40°)31.5 km/h0.25 mmMostly Cloudy
2:15 PM26 °C23 °C83 %1010.8 hPa16.1 kmNE (40°)27.8 km/hMostly Cloudy
2:17 PM27 °C23 °C79 %1010.8 hPa16.1 kmNE (50°)27.8 km/hMostly Cloudy
2:48 PM27 °C23 °C79 %1010.5 hPa16.1 kmENE (60°)35.2 km/h44.4 km/hMostly Cloudy
2:55 PM27.4 °C22.8 °C76 %1010.2 hPa16.1 kmNE (50°)31.5 km/hMostly Cloudy
2:56 PM27 °C23 °C79 %1010.2 hPa16.1 kmNE (50°)29.6 km/hMostly Cloudy
3:14 PM28 °C23 °C74 %1010.5 hPa14.5 kmENE (60°)38.9 km/h46.3 km/hRainLight Rain
3:29 PM25 °C23 °C89 %1010.5 hPa9.7 kmNE (50°)31.5 km/hLight Drizzle
3:34 PM26 °C24 °C89 %1010.5 hPa14.5 kmNE (50°)31.5 km/hOvercast
3:47 PM26 °C24 °C89 %1010.5 hPa16.1 kmNE (50°)29.6 km/h44.4 km/hMostly Cloudy
3:53 PM26 °C23 °C83 %1010.5 hPa16.1 kmNE (50°)33.3 km/hMostly Cloudy
3:55 PM26.4 °C23.1 °C82 %1010.5 hPa16.1 kmNE (50°)33.3 km/h0.25 mmMostly Cloudy
4:36 PM26 °C23 °C83 %1010.5 hPa16.1 kmEast (90°)20.4 km/hMostly Cloudy
4:37 PM26 °C23 °C83 %1010.8 hPa16.1 kmEast (90°)20.4 km/hMostly Cloudy
4:45 PM26 °C23 °C83 %1010.5 hPa16.1 kmEast (80°)18.5 km/hMostly Cloudy
4:55 PM26.5 °C23.1 °C81 %1010.8 hPa16.1 kmNE (50°)25.9 km/hMostly Cloudy
5:00 PM27 °C23 °C79 %1010.8 hPa16.1 kmNE (40°)24.1 km/hMostly Cloudy
5:02 PM27 °C23 °C79 %1010.5 hPa16.1 kmNE (50°)25.9 km/hMostly Cloudy
5:28 PM27 °C23 °C79 %1010.8 hPa16.1 kmNE (50°)25.9 km/hMostly Cloudy
5:46 PM26 °C23 °C83 %1010.8 hPa16.1 kmNE (50°)31.5 km/hMostly Cloudy
5:53 PM26 °C23 °C83 %1010.8 hPa16.1 kmENE (60°)29.6 km/hMostly Cloudy
5:54 PM26 °C23 °C83 %1010.8 hPa16.1 kmENE (60°)27.8 km/hMostly Cloudy
5:55 PM26.1 °C22.9 °C82 %1010.8 hPa16.1 kmENE (60°)27.8 km/hMostly Cloudy
5:57 PM26 °C23 °C83 %1010.8 hPa16.1 kmENE (60°)31.5 km/hScattered Clouds
6:06 PM26 °C23 °C83 %1010.8 hPa16.1 kmENE (60°)33.3 km/hMostly Cloudy
6:11 PM26 °C23 °C83 %1010.8 hPa16.1 kmENE (60°)25.9 km/hScattered Clouds
6:27 PM26 °C23 °C83 %1011.2 hPa16.1 kmNE (50°)25.9 km/hMostly Cloudy
6:50 PM26 °C23 °C83 %1011.2 hPa16.1 kmNE (50°)22.2 km/hScattered Clouds
6:55 PM25.8 °C22.9 °C84 %1011.2 hPa16.1 kmENE (60°)25.9 km/hScattered Clouds
7:06 PM26 °C23 °C83 %1011.5 hPa16.1 kmENE (60°)27.8 km/hLight Drizzle
7:12 PM25 °C23 °C89 %1011.5 hPa16.1 kmNE (50°)33.3 km/hLight Drizzle
7:16 PM26 °C23 °C83 %1011.5 hPa16.1 kmNE (50°)29.6 km/hRainLight Rain
7:17 PM25 °C23 °C89 %1011.5 hPa16.1 kmENE (60°)29.6 km/hMostly Cloudy
7:24 PM25 °C23 °C89 %1011.5 hPa16.1 kmENE (60°)29.6 km/hScattered Clouds
7:33 PM25 °C23 °C89 %1011.9 hPa16.1 kmENE (60°)29.6 km/hMostly Cloudy
7:34 PM25 °C23 °C89 %1011.9 hPa16.1 kmENE (60°)31.5 km/hMostly Cloudy
7:46 PM25 °C22 °C83 %1011.9 hPa16.1 kmENE (60°)25.9 km/h40.7 km/hScattered Clouds
7:55 PM25.4 °C22.8 °C85 %1011.9 hPa16.1 kmENE (60°)27.8 km/h0 mmScattered Clouds
8:07 PM26 °C22 °C78 %1012.2 hPa16.1 kmENE (60°)29.6 km/hMostly Cloudy
8:55 PM25.9 °C22.5 °C81 %1012.5 hPa16.1 kmENE (60°)27.8 km/hMostly Cloudy
9:23 PM26 °C23 °C83 %1012.5 hPa16.1 kmENE (60°)25.9 km/h38.9 km/hMostly Cloudy
9:55 PM25.9 °C22.7 °C82 %1012.9 hPa16.1 kmENE (60°)27.8 km/hOvercast
10:21 PM26 °C23 °C83 %1012.9 hPa16.1 kmENE (60°)24.1 km/hMostly Cloudy
10:29 PM26 °C23 °C83 %1012.9 hPa16.1 kmENE (60°)25.9 km/hMostly Cloudy
10:39 PM26 °C23 °C83 %1012.9 hPa16.1 kmENE (60°)24.1 km/hMostly Cloudy
10:49 PM26 °C23 °C83 %1012.9 hPa6.4 kmEast (90°)40.7 km/h51.8 km/hRainRain
10:50 PM25 °C23 °C89 %1012.9 hPa4.8 kmEast (90°)37 km/h51.8 km/hRainRain
10:51 PM25 °C23 °C89 %1012.9 hPa4 kmEast (90°)33.3 km/h51.8 km/hRainRain
10:55 PM24.4 °C22.9 °C91 %1012.9 hPa4 kmEast (80°)27.8 km/h51.8 km/h1.52 mmRainLight Rain
10:56 PM24 °C23 °C94 %1012.9 hPa3.2 kmEast (90°)25.9 km/h51.8 km/hRainLight Rain
10:58 PM24 °C23 °C94 %1012.9 hPa4 kmEast (90°)22.2 km/h51.8 km/hRainLight Rain
10:59 PM24 °C23 °C94 %1012.9 hPa4.8 kmEast (90°)18.5 km/h51.8 km/hRainLight Rain
11:06 PM24 °C23 °C94 %1012.9 hPa14.5 kmENE (70°)22.2 km/hMostly Cloudy
11:08 PM24 °C23 °C94 %1012.9 hPa16.1 kmENE (70°)24.1 km/hOvercast
11:11 PM24 °C23 °C94 %1013.2 hPa16.1 kmENE (70°)18.5 km/hOvercast
11:14 PM24 °C23 °C94 %1012.9 hPa16.1 kmENE (60°)22.2 km/hOvercast
11:41 PM24 °C23 °C94 %1012.9 hPa16.1 kmENE (60°)25.9 km/hMostly Cloudy
11:55 PM24.6 °C23.3 °C92 %1012.9 hPa16.1 kmENE (60°)22.2 km/h0 mmScattered Clouds
Hourly data recorded from PGUA, located 0 kilometers away from Achang Bay, Guam







STORIES FROM OUR PARTNERS